sat.trackr.live / text

‹ back to catalog

STARLINK-36044

NORAD 66799 · 2025-278J

PAYLOAD ACTIVE UNKNOWN

§ Identity

Operator
Country
US
Launch date
2025-12-01
Launch site
AFETR
Launch vehicle
Mass (kg)
RCS (m²)

Purposes: comms

External: N2YO · Heavens-Above · Gunter

§ Orbital elements

Epoch: 2026-09-20T21:03:50.730336Z

Period
94.27 min
Inclination
42.9995°
Eccentricity
0.0001560
Mean motion
15.27580827 rev/d
Perigee alt
482.0 km
Apogee alt
484.1 km
Semi-major
6,861.2 km
B*
2.0760e-4
RAAN
91.7801°
Arg perigee
271.6081°
Mean anomaly
88.4592°
Rev number
4,506

§ Raw data

STARLINK-360441 66799U 25278J   26263.87767049  .00005455  00000+0  20760-3 0  99942 66799  42.9995  91.7801 0001560 271.6081  88.4592 15.27580827 45066

JSON: /api/v1/satellites/66799 · /tle

For live sub-satellite position, see the globe view (requires WebGL).

§ Visibility from observer

Set your observer location to see the next 7 days of passes ≥ 10°. The values pass through the URL so the page stays shareable.

No JS? Fill the form by hand. The geolocation button needs JavaScript.